EW8552 Weather Reports


time (UTC)temp
F
wind
direction
speed
knots
gust
knots
rain 1hr
in
rain 24hr
in
rain mn
in
humidity
%
barometer
mb
20260505083017 60 0.0 0.0 0.00 0.00 0.00 66 1011.4
20260505080017 60 0.0 0.0 0.00 0.00 0.00 66 1011.2
20260505073037 60 0.0 0.0 0.00 0.00 0.00 65 1011.2
20260505070058 61 0.0 0.0 0.00 0.00 0.00 65 1011.1
20260505063017 62 0.0 0.9 0.00 0.00 0.00 63 1011.0
20260505060018 62 0.0 0.9 0.00 0.00 0.00 63 1011.0
20260505053017 62 0.0 0.0 0.00 0.00 0.00 62 1011.0
20260505040016 65 0.0 0.0 0.00 0.00 0.00 55 1011.0
20260505033017 66 0.0 0.9 0.00 0.00 0.00 54 1011.0
20260505030016 66 0.0 0.9 0.00 0.00 0.00 52 1010.9
20260505023037 67 0.0 0.9 0.00 0.00 0.00 51 1010.9
20260505020016 68 0.0 0.9 0.00 0.00 0.00 49 1010.7
20260505013016 69 0.0 0.9 0.00 0.00 0.00 46 1010.4
20260505010017 70 0.0 1.7 0.00 0.00 0.00 44 1010.1
20260505003037 71 0.0 1.7 0.00 0.00 0.00 42 1009.9
20260505000017 72 0.0 3.5 0.00 0.00 0.00 40 1009.9
20260504233016 73 0.0 2.6 0.00 0.00 0.00 39 1009.7
20260504230016 74 0.0 1.7 0.00 0.00 0.00 38 1009.6
20260504223016 74 248 0.9 5.2 0.00 0.00 0.00 36 1009.6
20260504220017 77 90 0.9 5.2 0.00 0.00 0.00 34 1009.5
20260504213016 78 90 0.9 4.3 0.00 0.00 0.00 32 1009.6
20260504210016 77 203 0.9 3.5 0.00 0.00 0.00 32 1009.6
20260504203016 78 113 0.9 3.5 0.00 0.00 0.00 31 1009.8
20260504200017 77 225 0.9 4.3 0.00 0.00 0.00 32 1010.3
20260504193037 76 90 0.9 2.6 0.00 0.00 0.00 33 1010.6
20260504190037 75 90 0.9 3.5 0.00 0.00 0.00 34 1011.2
20260504183036 74 248 0.9 4.3 0.00 0.00 0.00 33 1011.9
20260504180016 73 225 0.9 4.3 0.00 0.00 0.00 36 1012.1
20260504173016 73 225 0.9 4.3 0.00 0.00 0.00 34 1012.4